Tracking 28790 objects as of 19-Apr-2024
HD Live streaming from Space Station
objects crossing your sky now

ATLAS 75E DEB

Track ATLAS 75E DEB now!
10-day predictions


NORAD ID: 25842
Int'l Code: 1983-072C
Perigee: 1,634.8 km
Apogee: 19,609.2 km
Inclination: 65.2 °
Period: 367.4 minutes
Semi major axis: 16992 km
RCS: 0.0797 m2 (small)
Launch date: July 14, 1983
Source: United States (US)
Launch site: AIR FORCE WESTERN TEST RANGE (AFWTR)

Note: This is SATELLITE DEBRIS
Your satellite tracking list
Your tracking list is empty




NASA's NSSDC Master Catalog

Two Line Element Set (TLE):
1 25842U 83072C   24109.85941427 -.00000034  00000-0  00000-0 0  9995
2 25842  65.2312  11.1086 5288784 127.0613   0.1935  3.91920270 44561
Source of the keplerian elements: AFSPC